Time,TemperatureF,DewpointF,PressureIn,WindDirection,WindDirectionDegrees,WindSpeedMPH,WindSpeedGustMPH,Humidity,HourlyPrecipIn,Conditions,Clouds,dailyrainin,SoftwareType,DateUTC
2013-03-08 00:04:00,30.6,23.9,29.93,SW,224,3.5,3.5,76,0.00,CLR,SCT,0.00,WeatherDisplay:10.37,2013-03-08 08:04:00,
2013-03-08 00:10:00,30.4,23.7,29.93,SW,224,3.5,3.5,76,0.00,CLR,SCT,0.00,WeatherDisplay:10.37,2013-03-08 08:10:00,
2013-03-08 00:15:00,30.2,23.5,29.93,SW,224,3.5,3.5,76,0.00,CLR,SCT,0.00,WeatherDisplay:10.37,2013-03-08 08:15:00,
2013-03-08 00:20:00,30.0,23.1,29.93,SW,224,0.0,0.0,75,0.00,CLR,SCT,0.00,WeatherDisplay:10.37,2013-03-08 08:20:00,
2013-03-08 00:25:00,29.8,22.9,29.93,SW,224,0.0,0.0,75,0.00,CLR,SCT,0.00,WeatherDisplay:10.37,2013-03-08 08:25:00,
2013-03-08 00:30:00,29.7,22.7,29.93,SW,224,0.0,0.0,75,0.00,CLR,SCT,0.00,WeatherDisplay:10.37,2013-03-08 08:30:00,
2013-03-08 00:36:00,29.7,22.7,29.93,SW,224,0.0,0.0,75,0.00,CLR,SCT,0.00,WeatherDisplay:10.37,2013-03-08 08:36:00,
2013-03-08 00:41:00,29.7,23.0,29.93,SW,224,0.0,0.0,76,0.00,CLR,SCT,0.00,WeatherDisplay:10.37,2013-03-08 08:41:00,
2013-03-08 00:46:00,29.5,23.2,29.93,SW,224,0.0,0.0,77,0.00,CLR,SCT,0.00,WeatherDisplay:10.37,2013-03-08 08:46:00,
2013-03-08 00:51:00,29.3,23.0,29.93,SW,224,2.3,0.0,77,0.00,CLR,SCT,0.00,WeatherDisplay:10.37,2013-03-08 08:51:00,
2013-03-08 00:56:00,29.5,24.1,29.93,SW,223,4.0,0.0,80,0.00,CLR,SCT,0.00,WeatherDisplay:10.37,2013-03-08 08:56:00,
2013-03-08 01:02:00,29.5,24.4,29.93,SW,223,3.5,3.5,81,0.00,CLR,SCT,0.00,WeatherDisplay:10.37,2013-03-08 09:02:00,
2013-03-08 01:07:00,29.8,25.3,29.93,SW,234,3.5,3.5,83,0.00,CLR,SCT,0.00,WeatherDisplay:10.37,2013-03-08 09:07:00,
2013-03-08 01:12:00,30.0,25.5,29.93,SW,234,0.0,0.0,83,0.00,CLR,SCT,0.00,WeatherDisplay:10.37,2013-03-08 09:12:00,
2013-03-08 01:17:00,29.7,24.5,29.93,SW,234,0.0,0.0,81,0.00,CLR,SCT,0.00,WeatherDisplay:10.37,2013-03-08 09:17:00,
2013-03-08 01:22:00,29.5,24.1,29.93,SW,232,2.7,0.0,80,0.00,CLR,SCT,0.00,WeatherDisplay:10.37,2013-03-08 09:22:00,
2013-03-08 01:27:00,29.5,24.1,29.93,SW,232,2.3,0.0,80,0.00,CLR,SCT,0.00,WeatherDisplay:10.37,2013-03-08 09:27:00,
2013-03-08 01:33:00,29.5,24.1,29.93,SW,232,0.0,0.0,80,0.00,CLR,SCT,0.00,WeatherDisplay:10.37,2013-03-08 09:33:00,
2013-03-08 01:38:00,29.3,23.6,29.93,SW,232,2.3,0.0,79,0.00,CLR,SCT,0.00,WeatherDisplay:10.37,2013-03-08 09:38:00,
2013-03-08 01:43:00,29.1,23.4,29.93,SW,232,2.3,0.0,79,0.00,CLR,SCT,0.00,WeatherDisplay:10.37,2013-03-08 09:43:00,
2013-03-08 01:48:00,28.9,23.2,29.93,SW,232,2.3,0.0,79,0.00,CLR,SCT,0.00,WeatherDisplay:10.37,2013-03-08 09:48:00,
2013-03-08 01:54:00,28.8,23.1,29.93,SW,232,0.0,0.0,79,0.00,CLR,SCT,0.00,WeatherDisplay:10.37,2013-03-08 09:54:00,
2013-03-08 01:59:00,28.8,23.4,29.93,SW,232,0.0,0.0,80,0.00,CLR,SCT,0.00,WeatherDisplay:10.37,2013-03-08 09:59:00,
2013-03-08 02:04:00,28.6,23.2,29.93,SW,232,0.0,0.0,80,0.00,CLR,SCT,0.00,WeatherDisplay:10.37,2013-03-08 10:04:00,
2013-03-08 02:09:00,28.4,23.0,29.93,SW,232,0.0,0.0,80,0.00,CLR,SCT,0.00,WeatherDisplay:10.37,2013-03-08 10:09:00,
2013-03-08 02:14:00,28.4,23.0,29.93,SW,232,0.0,0.0,80,0.00,CLR,SCT,0.00,WeatherDisplay:10.37,2013-03-08 10:14:00,
2013-03-08 02:20:00,28.4,23.0,29.93,SW,232,0.0,0.0,80,0.00,CLR,SCT,0.00,WeatherDisplay:10.37,2013-03-08 10:20:00,
2013-03-08 02:25:00,28.4,23.0,29.93,SW,232,0.0,0.0,80,0.00,CLR,SCT,0.00,WeatherDisplay:10.37,2013-03-08 10:25:00,
2013-03-08 02:30:00,28.0,22.4,29.93,SW,232,0.0,0.0,79,0.00,CLR,SCT,0.00,WeatherDisplay:10.37,2013-03-08 10:30:00,
2013-03-08 02:35:00,27.9,22.2,29.93,SW,232,0.0,0.0,79,0.00,CLR,SCT,0.00,WeatherDisplay:10.37,2013-03-08 10:35:00,
2013-03-08 02:40:00,27.9,22.2,29.93,SW,232,0.0,0.0,79,0.00,CLR,SCT,0.00,WeatherDisplay:10.37,2013-03-08 10:40:00,
2013-03-08 02:46:00,27.9,22.2,29.93,SW,232,0.0,0.0,79,0.00,CLR,SCT,0.00,WeatherDisplay:10.37,2013-03-08 10:46:00,
2013-03-08 02:51:00,27.7,22.0,29.93,SW,232,0.0,0.0,79,0.00,CLR,SCT,0.00,WeatherDisplay:10.37,2013-03-08 10:51:00,
2013-03-08 02:56:00,27.9,22.2,29.93,SW,232,3.5,3.5,79,0.00,CLR,SCT,0.00,WeatherDisplay:10.37,2013-03-08 10:56:00,
2013-03-08 03:01:00,28.0,22.7,29.93,SW,232,2.3,2.3,80,0.00,CLR,SCT,0.00,WeatherDisplay:10.37,2013-03-08 11:01:00,
2013-03-08 03:06:00,28.4,23.3,29.93,SW,232,3.5,3.5,81,0.00,CLR,SCT,0.00,WeatherDisplay:10.37,2013-03-08 11:06:00,
2013-03-08 03:11:00,28.4,23.3,29.93,SW,232,2.3,0.0,81,0.00,CLR,SCT,0.00,WeatherDisplay:10.37,2013-03-08 11:11:00,
2013-03-08 03:16:00,28.4,23.3,29.93,SW,232,0.0,0.0,81,0.00,CLR,SCT,0.00,WeatherDisplay:10.37,2013-03-08 11:16:00,
2013-03-08 03:22:00,28.2,22.8,29.93,SW,232,0.0,0.0,80,0.00,CLR,SCT,0.00,WeatherDisplay:10.37,2013-03-08 11:22:00,
2013-03-08 03:27:00,28.0,22.7,29.93,SW,232,0.0,0.0,80,0.00,CLR,SCT,0.00,WeatherDisplay:10.37,2013-03-08 11:27:00,
2013-03-08 03:32:00,28.0,22.7,29.93,SW,232,0.0,0.0,80,0.00,CLR,SCT,0.00,WeatherDisplay:10.37,2013-03-08 11:32:00,
2013-03-08 03:37:00,27.9,22.5,29.93,SW,232,0.0,0.0,80,0.00,CLR,SCT,0.00,WeatherDisplay:10.37,2013-03-08 11:37:00,
2013-03-08 03:42:00,27.9,22.5,29.93,SW,232,0.0,0.0,80,0.00,CLR,SCT,0.00,WeatherDisplay:10.37,2013-03-08 11:42:00,
2013-03-08 03:48:00,27.9,23.1,29.93,SW,232,0.0,0.0,82,0.00,CLR,SCT,0.00,WeatherDisplay:10.37,2013-03-08 11:48:00,
2013-03-08 03:53:00,27.9,23.7,29.93,SW,232,0.0,0.0,84,0.00,CLR,SCT,0.00,WeatherDisplay:10.37,2013-03-08 11:53:00,
2013-03-08 03:58:00,27.9,24.2,29.93,SW,232,2.3,2.3,86,0.00,CLR,SCT,0.00,WeatherDisplay:10.37,2013-03-08 11:58:00,
2013-03-08 04:03:00,27.9,24.2,29.93,SW,232,0.0,0.0,86,0.00,CLR,SCT,0.00,WeatherDisplay:10.37,2013-03-08 12:03:00,
2013-03-08 04:08:00,28.0,24.4,29.93,SW,232,0.0,0.0,86,0.00,CLR,SCT,0.00,WeatherDisplay:10.37,2013-03-08 12:08:00,
2013-03-08 04:13:00,28.2,24.6,29.93,SW,232,0.0,0.0,86,0.00,CLR,SCT,0.00,WeatherDisplay:10.37,2013-03-08 12:13:00,
2013-03-08 04:18:00,28.0,24.1,29.93,SW,232,0.0,0.0,85,0.00,CLR,SCT,0.00,WeatherDisplay:10.37,2013-03-08 12:18:00,
2013-03-08 04:24:00,28.0,23.8,29.93,SW,232,0.0,0.0,84,0.00,CLR,SCT,0.00,WeatherDisplay:10.37,2013-03-08 12:24:00,
2013-03-08 04:29:00,28.0,23.8,29.93,SW,232,0.0,0.0,84,0.00,CLR,SCT,0.00,WeatherDisplay:10.37,2013-03-08 12:29:00,
2013-03-08 04:34:00,28.0,23.8,29.93,SW,232,0.0,0.0,84,0.00,CLR,SCT,0.00,WeatherDisplay:10.37,2013-03-08 12:34:00,
2013-03-08 04:39:00,28.4,24.2,29.93,SW,232,0.0,0.0,84,0.00,CLR,SCT,0.00,WeatherDisplay:10.37,2013-03-08 12:39:00,
2013-03-08 04:44:00,28.4,24.2,29.93,SW,232,0.0,0.0,84,0.00,CLR,SCT,0.00,WeatherDisplay:10.37,2013-03-08 12:44:00,
2013-03-08 04:50:00,28.4,24.2,29.93,SW,232,0.0,0.0,84,0.00,CLR,SCT,0.00,WeatherDisplay:10.37,2013-03-08 12:50:00,
2013-03-08 04:55:00,28.4,24.2,29.93,SW,232,0.0,0.0,84,0.00,CLR,SCT,0.00,WeatherDisplay:10.37,2013-03-08 12:55:00,
2013-03-08 05:00:00,28.6,24.1,29.93,SW,232,0.0,0.0,83,0.00,CLR,SCT,0.00,WeatherDisplay:10.37,2013-03-08 13:00:00,
2013-03-08 05:05:00,28.6,24.1,29.93,SW,232,0.0,0.0,83,0.00,CLR,SCT,0.00,WeatherDisplay:10.37,2013-03-08 13:05:00,
2013-03-08 05:10:00,28.6,24.1,29.93,SW,232,0.0,0.0,83,0.00,CLR,SCT,0.00,WeatherDisplay:10.37,2013-03-08 13:10:00,
2013-03-08 05:15:00,28.6,24.1,29.93,SW,232,0.0,0.0,83,0.00,CLR,SCT,0.00,WeatherDisplay:10.37,2013-03-08 13:15:00,
2013-03-08 05:21:00,28.6,24.1,29.93,SW,232,0.0,0.0,83,0.00,CLR,SCT,0.00,WeatherDisplay:10.37,2013-03-08 13:21:00,
2013-03-08 05:26:00,28.6,24.1,29.93,SW,232,0.0,0.0,83,0.00,CLR,SCT,0.00,WeatherDisplay:10.37,2013-03-08 13:26:00,
2013-03-08 05:31:00,28.4,23.9,29.93,SW,232,0.0,0.0,83,0.00,CLR,SCT,0.00,WeatherDisplay:10.37,2013-03-08 13:31:00,
2013-03-08 05:36:00,28.4,23.9,29.93,SW,232,0.0,0.0,83,0.00,CLR,SCT,0.00,WeatherDisplay:10.37,2013-03-08 13:36:00,
2013-03-08 05:41:00,28.4,23.9,29.93,SW,232,0.0,0.0,83,0.00,CLR,SCT,0.00,WeatherDisplay:10.37,2013-03-08 13:41:00,
2013-03-08 05:47:00,28.4,23.9,29.93,SW,232,0.0,0.0,83,0.00,CLR,SCT,0.00,WeatherDisplay:10.37,2013-03-08 13:47:00,
2013-03-08 05:52:00,28.4,23.9,29.93,SW,232,2.3,2.7,83,0.00,CLR,SCT,0.00,WeatherDisplay:10.37,2013-03-08 13:52:00,
2013-03-08 05:57:00,28.4,23.9,29.93,SW,232,2.3,2.3,83,0.00,CLR,SCT,0.00,WeatherDisplay:10.37,2013-03-08 13:57:00,
2013-03-08 06:02:00,28.4,23.9,29.93,SW,232,0.0,0.0,83,0.00,CLR,SCT,0.00,WeatherDisplay:10.37,2013-03-08 14:02:00,
2013-03-08 06:07:00,28.4,23.6,29.93,SW,232,0.0,0.0,82,0.00,CLR,SCT,0.00,WeatherDisplay:10.37,2013-03-08 14:07:00,
2013-03-08 06:13:00,28.4,23.6,29.93,SW,232,0.0,0.0,82,0.00,CLR,SCT,0.00,WeatherDisplay:10.37,2013-03-08 14:13:00,
2013-03-08 06:18:00,28.4,23.6,29.93,SW,232,0.0,0.0,82,0.00,CLR,SCT,0.00,WeatherDisplay:10.37,2013-03-08 14:18:00,
2013-03-08 06:23:00,28.4,23.6,29.93,SW,232,0.0,0.0,82,0.00,CLR,SCT,0.00,WeatherDisplay:10.37,2013-03-08 14:23:00,
2013-03-08 06:28:00,28.4,23.6,29.93,SW,232,0.0,0.0,82,0.00,CLR,SCT,0.00,WeatherDisplay:10.37,2013-03-08 14:28:00,
2013-03-08 06:34:00,28.2,23.4,29.93,SW,232,0.0,0.0,82,0.00,CLR,SCT,0.00,WeatherDisplay:10.37,2013-03-08 14:34:00,
2013-03-08 06:39:00,28.2,23.4,29.93,SW,232,0.0,0.0,82,0.00,CLR,SCT,0.00,WeatherDisplay:10.37,2013-03-08 14:39:00,
2013-03-08 06:44:00,28.2,23.7,29.93,SW,232,0.0,0.0,83,0.00,CLR,SCT,0.00,WeatherDisplay:10.37,2013-03-08 14:44:00,
2013-03-08 06:49:00,28.0,23.8,29.93,SW,232,0.0,0.0,84,0.00,CLR,SCT,0.00,WeatherDisplay:10.37,2013-03-08 14:49:00,
2013-03-08 06:55:00,28.2,24.0,29.93,SW,232,2.3,2.3,84,0.00,CLR,SCT,0.00,WeatherDisplay:10.37,2013-03-08 14:55:00,
2013-03-08 07:00:00,28.2,24.0,29.93,SW,232,3.5,3.5,84,0.00,CLR,SCT,0.00,WeatherDisplay:10.37,2013-03-08 15:00:00,
2013-03-08 07:05:00,28.4,24.2,29.93,SW,232,3.5,3.5,84,0.00,CLR,SCT,0.00,WeatherDisplay:10.37,2013-03-08 15:05:00,
2013-03-08 07:10:00,28.4,24.2,29.93,SW,232,0.0,0.0,84,0.00,CLR,SCT,0.00,WeatherDisplay:10.37,2013-03-08 15:10:00,
2013-03-08 07:16:00,28.6,24.4,29.93,SW,232,0.0,0.0,84,0.00,CLR,SCT,0.00,WeatherDisplay:10.37,2013-03-08 15:16:00,
2013-03-08 07:21:00,28.8,24.5,29.93,SW,232,3.5,0.0,84,0.00,CLR,SCT,0.00,WeatherDisplay:10.37,2013-03-08 15:21:00,
2013-03-08 07:26:00,28.8,24.5,29.93,SSE,155,5.8,5.8,84,0.00,CLR,SCT,0.00,WeatherDisplay:10.37,2013-03-08 15:26:00,
2013-03-08 07:31:00,28.9,24.7,29.93,SSE,157,3.5,3.5,84,0.00,CLR,SCT,0.00,WeatherDisplay:10.37,2013-03-08 15:31:00,
2013-03-08 07:36:00,29.1,24.9,29.93,SSE,157,0.0,0.0,84,0.00,CLR,SCT,0.00,WeatherDisplay:10.37,2013-03-08 15:36:00,
2013-03-08 07:42:00,29.3,25.1,29.93,SSE,157,0.0,0.0,84,0.00,CLR,SCT,0.00,WeatherDisplay:10.37,2013-03-08 15:42:00,
2013-03-08 07:47:00,29.5,25.2,29.93,WSW,253,3.5,3.5,84,0.00,CLR,SCT,0.00,WeatherDisplay:10.37,2013-03-08 15:47:00,
2013-03-08 07:52:00,29.7,25.4,29.96,WSW,255,3.6,0.0,84,0.00,CLR,SCT,0.00,WeatherDisplay:10.37,2013-03-08 15:52:00,
2013-03-08 07:57:00,30.0,26.1,29.96,WSW,245,5.8,5.8,85,0.00,CLR,SCT,0.00,WeatherDisplay:10.37,2013-03-08 15:57:00,
2013-03-08 08:02:00,30.9,27.2,29.96,East,95,4.6,4.6,86,0.00,CLR,SCT,0.00,WeatherDisplay:10.37,2013-03-08 16:02:00,
2013-03-08 08:07:00,31.6,28.8,29.96,ESE,108,4.6,4.6,89,0.00,CLR,SCT,0.00,WeatherDisplay:10.37,2013-03-08 16:07:00,
2013-03-08 08:12:00,32.2,29.3,29.96,East,99,0.0,0.0,89,0.00,CLR,SCT,0.00,WeatherDisplay:10.37,2013-03-08 16:12:00,
2013-03-08 08:17:00,32.5,29.7,29.96,ESE,108,4.6,4.6,89,0.00,CLR,SCT,0.00,WeatherDisplay:10.37,2013-03-08 16:17:00,
2013-03-08 08:23:00,32.9,30.0,29.96,ESE,105,3.5,0.0,89,0.00,CLR,SCT,0.00,WeatherDisplay:10.37,2013-03-08 16:23:00,
2013-03-08 08:28:00,33.1,30.2,29.96,ESE,117,4.9,4.9,89,0.00,CLR,SCT,0.00,WeatherDisplay:10.37,2013-03-08 16:28:00,
2013-03-08 08:33:00,33.1,29.9,29.96,SE,125,3.5,3.5,88,0.00,CLR,SCT,0.00,WeatherDisplay:10.37,2013-03-08 16:33:00,
2013-03-08 08:38:00,33.1,29.6,29.96,SE,140,3.5,3.5,87,0.00,CLR,SCT,0.00,WeatherDisplay:10.37,2013-03-08 16:38:00,
2013-03-08 08:44:00,33.1,29.1,29.96,ESE,117,5.8,5.8,85,0.00,CLR,SCT,0.00,WeatherDisplay:10.37,2013-03-08 16:44:00,
2013-03-08 08:49:00,33.1,28.5,29.96,SE,130,3.6,3.6,83,0.00,CLR,SCT,0.00,WeatherDisplay:10.37,2013-03-08 16:49:00,
2013-03-08 08:54:00,33.3,28.7,29.96,SE,136,2.3,0.0,83,0.00,CLR,SCT,0.00,WeatherDisplay:10.37,2013-03-08 16:54:00,
2013-03-08 08:59:00,33.4,28.5,29.96,SE,136,0.0,0.0,82,0.00,CLR,SCT,0.00,WeatherDisplay:10.37,2013-03-08 16:59:00,
2013-03-08 09:05:00,33.8,28.9,29.96,SE,136,0.0,0.0,82,0.00,CLR,SCT,0.00,WeatherDisplay:10.37,2013-03-08 17:05:00,
2013-03-08 09:10:00,34.3,29.4,29.96,SE,136,0.0,0.0,82,0.00,CLR,SCT,0.00,WeatherDisplay:10.37,2013-03-08 17:10:00,
2013-03-08 09:15:00,34.7,29.5,29.96,South,185,3.5,3.5,81,0.00,CLR,SCT,0.00,WeatherDisplay:10.37,2013-03-08 17:15:00,
2013-03-08 09:21:00,35.1,28.3,29.96,South,181,3.5,3.5,76,0.00,CLR,SCT,0.00,WeatherDisplay:10.37,2013-03-08 17:21:00,
2013-03-08 09:26:00,35.2,27.4,29.96,South,180,3.5,3.5,73,0.00,CLR,SCT,0.00,WeatherDisplay:10.37,2013-03-08 17:26:00,
2013-03-08 09:31:00,35.4,27.6,29.96,SSW,203,3.5,4.0,73,0.00,CLR,SCT,0.00,WeatherDisplay:10.37,2013-03-08 17:31:00,
2013-03-08 09:36:00,35.6,27.1,29.96,SSE,165,4.6,4.6,71,0.00,CLR,SCT,0.00,WeatherDisplay:10.37,2013-03-08 17:36:00,
2013-03-08 09:41:00,36.0,27.1,29.96,SW,224,3.5,3.6,70,0.00,CLR,SCT,0.00,WeatherDisplay:10.37,2013-03-08 17:41:00,
2013-03-08 09:46:00,36.1,26.9,29.96,South,177,3.6,3.6,69,0.00,CLR,SCT,0.00,WeatherDisplay:10.37,2013-03-08 17:46:00,
2013-03-08 09:59:00,37.4,27.8,29.96,SSW,204,5.8,5.8,68,0.00,CLR,SCT,0.00,WeatherDisplay:10.37,2013-03-08 17:59:00,
2013-03-08 10:04:00,38.7,30.4,29.96,WSW,238,5.8,5.8,72,0.00,CLR,SCT,0.00,WeatherDisplay:10.37,2013-03-08 18:04:00,
2013-03-08 10:12:00,39.2,25.2,29.96,SSW,206,4.6,4.6,57,0.00,CLR,SCT,0.00,WeatherDisplay:10.37,2013-03-08 18:12:00,
2013-03-08 10:20:00,39.7,24.0,29.96,North,0,3.5,0.0,53,0.00,CLR,SCT,0.00,WeatherDisplay:10.37,2013-03-08 18:20:00,
2013-03-08 10:25:00,40.5,24.7,29.96,NW,326,5.8,5.8,53,0.00,CLR,SCT,0.00,WeatherDisplay:10.37,2013-03-08 18:25:00,
2013-03-08 10:30:00,41.0,23.8,29.96,West,281,6.9,6.9,50,0.00,CLR,SCT,0.00,WeatherDisplay:10.37,2013-03-08 18:30:00,
2013-03-08 10:36:00,41.5,24.7,29.96,West,277,5.8,5.8,51,0.00,CLR,SCT,0.00,WeatherDisplay:10.37,2013-03-08 18:36:00,
2013-03-08 10:41:00,42.3,24.4,29.96,West,269,8.1,8.1,49,0.00,CLR,SCT,0.00,WeatherDisplay:10.37,2013-03-08 18:41:00,
2013-03-08 10:46:00,42.4,24.6,29.96,West,273,6.3,6.3,49,0.00,CLR,SCT,0.00,WeatherDisplay:10.37,2013-03-08 18:46:00,
2013-03-08 10:51:00,42.3,23.4,29.96,West,276,5.8,5.8,47,0.00,CLR,SCT,0.00,WeatherDisplay:10.37,2013-03-08 18:51:00,
2013-03-08 10:56:00,42.1,22.8,29.96,WNW,284,5.8,5.8,46,0.00,CLR,SCT,0.00,WeatherDisplay:10.37,2013-03-08 18:56:00,
2013-03-08 11:02:00,42.6,24.3,29.96,WSW,252,5.8,5.8,48,0.00,CLR,SCT,0.00,WeatherDisplay:10.37,2013-03-08 19:02:00,
2013-03-08 11:07:00,42.6,24.3,29.96,WSW,252,5.8,5.8,48,0.00,CLR,SCT,0.00,WeatherDisplay:10.37,2013-03-08 19:07:00,
2013-03-08 11:12:00,43.0,24.1,29.96,WSW,258,5.8,5.8,47,0.00,CLR,SCT,0.00,WeatherDisplay:10.37,2013-03-08 19:12:00,
2013-03-08 11:17:00,43.5,25.1,29.96,West,277,4.6,4.6,48,0.00,CLR,SCT,0.00,WeatherDisplay:10.37,2013-03-08 19:17:00,
2013-03-08 11:22:00,45.3,25.7,29.96,WNW,302,8.1,8.1,46,0.00,CLR,SCT,0.00,WeatherDisplay:10.37,2013-03-08 19:22:00,
2013-03-08 11:28:00,46.0,25.3,29.96,NNW,343,8.1,8.1,44,0.00,CLR,SCT,0.00,WeatherDisplay:10.37,2013-03-08 19:28:00,
2013-03-08 11:33:00,46.2,25.5,29.96,WSW,253,8.1,8.1,44,0.00,CLR,SCT,0.00,WeatherDisplay:10.37,2013-03-08 19:33:00,
2013-03-08 11:38:00,46.9,25.0,29.96,North,357,5.8,5.8,42,0.00,CLR,SCT,0.00,WeatherDisplay:10.37,2013-03-08 19:38:00,
2013-03-08 11:43:00,46.9,24.4,29.96,NW,323,9.2,9.2,41,0.00,CLR,SCT,0.00,WeatherDisplay:10.37,2013-03-08 19:43:00,
2013-03-08 11:48:00,47.3,24.2,29.96,NW,314,5.8,5.8,40,0.00,CLR,SCT,0.00,WeatherDisplay:10.37,2013-03-08 19:48:00,
2013-03-08 11:54:00,46.8,23.7,29.96,North,353,3.5,3.5,40,0.00,CLR,SCT,0.00,WeatherDisplay:10.37,2013-03-08 19:54:00,
2013-03-08 11:59:00,47.5,24.9,29.96,North,353,3.5,0.0,41,0.00,CLR,SCT,0.00,WeatherDisplay:10.37,2013-03-08 19:59:00,
2013-03-08 12:04:00,48.0,25.4,29.96,West,275,6.9,6.9,41,0.00,CLR,SCT,0.00,WeatherDisplay:10.37,2013-03-08 20:04:00,
2013-03-08 12:09:00,48.6,25.3,29.96,WSW,258,8.1,8.1,40,0.00,CLR,SCT,0.00,WeatherDisplay:10.37,2013-03-08 20:09:00,
2013-03-08 12:14:00,49.5,26.1,29.96,West,259,5.8,5.8,40,0.00,CLR,SCT,0.00,WeatherDisplay:10.37,2013-03-08 20:14:00,
2013-03-08 12:20:00,48.9,25.0,29.96,SW,235,9.2,9.2,39,0.00,CLR,SCT,0.00,WeatherDisplay:10.37,2013-03-08 20:20:00,
2013-03-08 12:25:00,49.8,25.8,29.96,SSW,213,5.8,5.8,39,0.00,CLR,SCT,0.00,WeatherDisplay:10.37,2013-03-08 20:25:00,
2013-03-08 12:30:00,50.4,25.7,29.96,NW,311,5.8,5.8,38,0.00,CLR,SCT,0.00,WeatherDisplay:10.37,2013-03-08 20:30:00,
2013-03-08 12:35:00,51.4,26.6,29.96,SW,230,8.1,8.1,38,0.00,CLR,SCT,0.00,WeatherDisplay:10.37,2013-03-08 20:35:00,
2013-03-08 12:40:00,52.7,27.1,29.96,WSW,255,8.1,8.1,37,0.00,CLR,SCT,0.00,WeatherDisplay:10.37,2013-03-08 20:40:00,
2013-03-08 12:45:00,53.8,28.1,29.96,NW,320,3.5,5.4,37,0.00,CLR,SCT,0.00,WeatherDisplay:10.37,2013-03-08 20:45:00,
2013-03-08 12:47:00,53.8,27.4,29.96,WNW,295,8.0,8.0,36,0.00,CLR,SCT,0.00,WeatherDisplay:10.37,2013-03-08 20:47:00,
2013-03-08 12:50:00,53.8,27.4,29.96,WNW,295,8.0,8.0,36,0.00,CLR,SCT,0.00,WeatherDisplay:10.37,2013-03-08 20:50:00,
2013-03-08 12:56:00,53.8,27.4,29.96,WNW,295,8.0,8.0,36,0.00,CLR,SCT,0.00,WeatherDisplay:10.37,2013-03-08 20:56:00,
2013-03-08 13:01:00,54.5,28.1,29.96,NNW,348,8.1,8.1,36,0.00,CLR,SCT,0.00,WeatherDisplay:10.37,2013-03-08 21:01:00,
2013-03-08 13:06:00,55.2,28.7,29.93,NNE,17,8.1,8.1,36,0.00,CLR,SCT,0.00,WeatherDisplay:10.37,2013-03-08 21:06:00,
2013-03-08 13:11:00,55.4,28.9,29.93,North,5,8.1,8.1,36,0.00,CLR,SCT,0.00,WeatherDisplay:10.37,2013-03-08 21:11:00,
2013-03-08 13:17:00,54.5,28.1,29.93,North,357,8.1,8.1,36,0.00,CLR,SCT,0.00,WeatherDisplay:10.37,2013-03-08 21:17:00,
2013-03-08 13:22:00,52.3,26.8,29.93,NNW,346,8.1,8.1,37,0.00,CLR,SCT,0.00,WeatherDisplay:10.37,2013-03-08 21:22:00,
2013-03-08 13:27:00,51.1,25.7,29.93,North,353,8.1,8.1,37,0.00,CLR,SCT,0.00,WeatherDisplay:10.37,2013-03-08 21:27:00,
2013-03-08 13:32:00,51.6,26.2,29.93,NW,316,8.1,8.1,37,0.00,CLR,SCT,0.00,WeatherDisplay:10.37,2013-03-08 21:32:00,
2013-03-08 13:38:00,52.5,27.0,29.93,NNW,333,11.5,11.5,37,0.00,CLR,SCT,0.00,WeatherDisplay:10.37,2013-03-08 21:38:00,
2013-03-08 13:43:00,53.4,27.8,29.93,West,275,0.0,0.0,37,0.00,CLR,SCT,0.00,WeatherDisplay:10.37,2013-03-08 21:43:00,
2013-03-08 13:48:00,53.2,27.6,29.93,NW,317,5.8,5.8,37,0.00,CLR,SCT,0.00,WeatherDisplay:10.37,2013-03-08 21:48:00,
2013-03-08 13:53:00,53.2,27.6,29.93,NW,326,4.6,4.9,37,0.00,CLR,SCT,0.00,WeatherDisplay:10.37,2013-03-08 21:53:00,
2013-03-08 13:58:00,54.5,28.1,29.93,NW,310,8.1,8.1,36,0.00,CLR,SCT,0.00,WeatherDisplay:10.37,2013-03-08 21:58:00,
2013-03-08 14:03:00,54.9,28.4,29.93,NE,42,13.8,13.8,36,0.00,CLR,SCT,0.00,WeatherDisplay:10.37,2013-03-08 22:03:00,
2013-03-08 14:09:00,54.5,28.1,29.93,North,353,6.9,6.9,36,0.00,CLR,SCT,0.00,WeatherDisplay:10.37,2013-03-08 22:09:00,
2013-03-08 14:45:00,50.7,25.4,29.93,NNW,338,6.9,7.2,37,0.00,CLR,SCT,0.00,WeatherDisplay:10.37,2013-03-08 22:45:00,
2013-03-08 15:03:00,49.5,24.2,29.93,North,0,5.8,0.0,37,0.00,CLR,SCT,0.00,WeatherDisplay:10.37,2013-03-08 23:03:00,
2013-03-08 15:08:00,49.3,24.1,29.93,NW,318,5.8,5.8,37,0.00,CLR,SCT,0.00,WeatherDisplay:10.37,2013-03-08 23:08:00,
2013-03-08 15:13:00,49.3,24.1,29.93,NW,320,5.8,5.8,37,0.00,CLR,SCT,0.00,WeatherDisplay:10.37,2013-03-08 23:13:00,
2013-03-08 15:19:00,50.2,24.9,29.93,WNW,299,8.1,8.1,37,0.00,CLR,SCT,0.00,WeatherDisplay:10.37,2013-03-08 23:19:00,
2013-03-08 15:24:00,51.4,26.0,29.93,NNW,327,11.5,11.5,37,0.00,CLR,SCT,0.00,WeatherDisplay:10.37,2013-03-08 23:24:00,
2013-03-08 15:29:00,51.8,25.7,29.93,NNW,348,9.2,9.2,36,0.00,CLR,SCT,0.00,WeatherDisplay:10.37,2013-03-08 23:29:00,
2013-03-08 15:35:00,52.0,25.8,29.93,NW,322,6.3,6.3,36,0.00,CLR,SCT,0.00,WeatherDisplay:10.37,2013-03-08 23:35:00,
2013-03-08 15:40:00,52.3,26.8,29.93,NNW,335,8.1,8.1,37,0.00,CLR,SCT,0.00,WeatherDisplay:10.37,2013-03-08 23:40:00,
2013-03-08 15:45:00,52.9,26.6,29.93,North,0,11.5,11.5,36,0.00,CLR,SCT,0.00,WeatherDisplay:10.37,2013-03-08 23:45:00,
2013-03-08 15:51:00,53.1,26.8,29.93,WNW,295,10.4,10.4,36,0.00,CLR,SCT,0.00,WeatherDisplay:10.37,2013-03-08 23:51:00,
2013-03-08 15:56:00,53.4,27.1,29.93,NW,305,10.9,10.9,36,0.00,CLR,SCT,0.00,WeatherDisplay:10.37,2013-03-08 23:56:00,
2013-03-08 16:01:00,53.6,27.3,29.93,NW,322,12.7,12.7,36,0.00,CLR,SCT,0.00,WeatherDisplay:10.37,2013-03-09 00:01:00,
2013-03-08 16:06:00,53.4,27.1,29.93,WNW,282,8.1,8.1,36,0.00,CLR,SCT,0.00,WeatherDisplay:10.37,2013-03-09 00:06:00,
2013-03-08 16:12:00,53.4,27.1,29.93,NW,308,10.4,10.4,36,0.00,CLR,SCT,0.00,WeatherDisplay:10.37,2013-03-09 00:12:00,
2013-03-08 16:17:00,52.9,26.6,29.93,NNW,343,12.7,12.7,36,0.00,CLR,SCT,0.00,WeatherDisplay:10.37,2013-03-09 00:17:00,
2013-03-08 16:22:00,52.5,26.3,29.93,North,357,12.7,12.7,36,0.00,CLR,SCT,0.00,WeatherDisplay:10.37,2013-03-09 00:22:00,
2013-03-08 16:28:00,52.2,26.0,29.93,NNW,341,10.4,10.4,36,0.00,CLR,SCT,0.00,WeatherDisplay:10.37,2013-03-09 00:28:00,
2013-03-08 16:33:00,51.8,25.7,29.93,NNW,344,11.5,11.5,36,0.00,CLR,SCT,0.00,WeatherDisplay:10.37,2013-03-09 00:33:00,
2013-03-08 16:38:00,51.6,26.2,29.93,NNW,343,10.4,10.4,37,0.00,CLR,SCT,0.00,WeatherDisplay:10.37,2013-03-09 00:38:00,
2013-03-08 16:43:00,50.5,25.2,29.93,North,11,15.0,15.0,37,0.00,CLR,SCT,0.00,WeatherDisplay:10.37,2013-03-09 00:43:00,
2013-03-08 16:49:00,49.8,24.6,29.96,NNE,14,12.7,12.7,37,0.00,CLR,SCT,0.00,WeatherDisplay:10.37,2013-03-09 00:49:00,
2013-03-08 16:54:00,49.6,24.4,29.96,NNE,28,12.7,12.7,37,0.00,CLR,SCT,0.00,WeatherDisplay:10.37,2013-03-09 00:54:00,
2013-03-08 16:59:00,49.6,24.4,29.96,North,3,8.1,8.1,37,0.00,CLR,SCT,0.00,WeatherDisplay:10.37,2013-03-09 00:59:00,
2013-03-08 17:04:00,49.3,24.1,29.96,North,0,11.5,11.5,37,0.00,CLR,SCT,0.00,WeatherDisplay:10.37,2013-03-09 01:04:00,
2013-03-08 17:10:00,48.7,23.6,29.96,NW,314,12.7,12.7,37,0.00,CLR,SCT,0.00,WeatherDisplay:10.37,2013-03-09 01:10:00,
2013-03-08 17:15:00,48.4,23.3,29.96,NNE,25,10.4,10.4,37,0.00,CLR,SCT,0.00,WeatherDisplay:10.37,2013-03-09 01:15:00,
2013-03-08 17:20:00,48.0,23.6,29.96,NNW,335,8.1,8.1,38,0.00,CLR,SCT,0.00,WeatherDisplay:10.37,2013-03-09 01:20:00,
2013-03-08 17:25:00,47.5,23.1,29.96,NW,318,8.1,8.1,38,0.00,CLR,SCT,0.00,WeatherDisplay:10.37,2013-03-09 01:25:00,
2013-03-08 17:31:00,47.1,22.8,29.96,NNW,342,8.7,8.7,38,0.00,CLR,SCT,0.00,WeatherDisplay:10.37,2013-03-09 01:31:00,
2013-03-08 17:36:00,46.6,22.3,29.96,North,350,8.1,8.1,38,0.00,CLR,SCT,0.00,WeatherDisplay:10.37,2013-03-09 01:36:00,
2013-03-08 17:41:00,46.2,22.0,29.96,NW,326,8.1,8.1,38,0.00,CLR,SCT,0.00,WeatherDisplay:10.37,2013-03-09 01:41:00,
2013-03-08 17:46:00,45.9,21.7,29.96,North,0,8.1,8.1,38,0.00,CLR,SCT,0.00,WeatherDisplay:10.37,2013-03-09 01:46:00,
2013-03-08 17:52:00,45.7,21.5,29.99,NNW,348,5.8,5.8,38,0.00,CLR,SCT,0.00,WeatherDisplay:10.37,2013-03-09 01:52:00,
2013-03-08 17:57:00,45.3,21.2,29.99,NNW,335,6.3,6.3,38,0.00,CLR,SCT,0.00,WeatherDisplay:10.37,2013-03-09 01:57:00,
2013-03-08 18:02:00,45.0,20.8,29.99,NNW,346,5.8,5.8,38,0.00,CLR,SCT,0.00,WeatherDisplay:10.37,2013-03-09 02:02:00,
2013-03-08 18:07:00,44.6,20.5,29.99,North,0,8.1,8.1,38,0.00,CLR,SCT,0.00,WeatherDisplay:10.37,2013-03-09 02:07:00,
2013-03-08 18:12:00,44.1,20.0,29.99,NNW,344,8.1,8.1,38,0.00,CLR,SCT,0.00,WeatherDisplay:10.37,2013-03-09 02:12:00,
2013-03-08 18:18:00,43.7,19.7,29.99,North,350,5.8,5.8,38,0.00,CLR,SCT,0.00,WeatherDisplay:10.37,2013-03-09 02:18:00,
2013-03-08 18:23:00,43.3,19.4,29.99,North,0,5.8,5.8,38,0.00,CLR,SCT,0.00,WeatherDisplay:10.37,2013-03-09 02:23:00,
2013-03-08 18:28:00,43.2,19.2,29.99,North,353,3.6,4.0,38,0.00,CLR,SCT,0.00,WeatherDisplay:10.37,2013-03-09 02:28:00,
2013-03-08 18:33:00,42.8,18.9,29.99,NNW,345,3.5,3.5,38,0.00,CLR,SCT,0.00,WeatherDisplay:10.37,2013-03-09 02:33:00,
2013-03-08 18:38:00,42.3,19.0,29.99,NNW,338,5.8,5.8,39,0.00,CLR,SCT,0.00,WeatherDisplay:10.37,2013-03-09 02:38:00,
2013-03-08 18:44:00,41.7,18.5,29.99,NNW,338,4.6,4.6,39,0.00,CLR,SCT,0.00,WeatherDisplay:10.37,2013-03-09 02:44:00,
2013-03-08 18:49:00,41.2,18.1,30.02,NNW,340,4.9,4.9,39,0.00,CLR,SCT,0.00,WeatherDisplay:10.37,2013-03-09 02:49:00,
2013-03-08 18:54:00,41.0,17.9,30.02,NNW,344,5.8,5.8,39,0.00,CLR,SCT,0.00,WeatherDisplay:10.37,2013-03-09 02:54:00,
2013-03-08 18:59:00,40.5,17.4,30.02,NNW,344,5.8,5.8,39,0.00,CLR,SCT,0.00,WeatherDisplay:10.37,2013-03-09 02:59:00,
2013-03-08 19:04:00,40.3,17.3,30.02,NNW,338,4.6,4.6,39,0.00,CLR,SCT,0.00,WeatherDisplay:10.37,2013-03-09 03:04:00,
2013-03-08 19:10:00,39.9,17.5,30.02,NW,325,5.8,5.8,40,0.00,CLR,SCT,0.00,WeatherDisplay:10.37,2013-03-09 03:10:00,
2013-03-08 19:15:00,39.7,17.4,30.02,NNW,337,4.6,4.6,40,0.00,CLR,SCT,0.00,WeatherDisplay:10.37,2013-03-09 03:15:00,
2013-03-08 19:20:00,39.6,17.2,30.02,NNW,331,4.6,4.6,40,0.00,CLR,SCT,0.00,WeatherDisplay:10.37,2013-03-09 03:20:00,
2013-03-08 19:25:00,39.4,17.0,30.02,NNW,337,3.6,3.6,40,0.00,CLR,SCT,0.00,WeatherDisplay:10.37,2013-03-09 03:25:00,
2013-03-08 19:30:00,39.0,16.7,30.02,NNW,334,3.5,3.6,40,0.00,CLR,SCT,0.00,WeatherDisplay:10.37,2013-03-09 03:30:00,
2013-03-08 19:35:00,38.8,16.5,30.02,NNW,338,4.6,4.6,40,0.00,CLR,SCT,0.00,WeatherDisplay:10.37,2013-03-09 03:35:00,
2013-03-08 19:41:00,38.5,16.2,30.02,NNW,339,3.5,3.5,40,0.00,CLR,SCT,0.00,WeatherDisplay:10.37,2013-03-09 03:41:00,
2013-03-08 19:46:00,38.1,15.9,30.02,NNW,339,2.7,0.0,40,0.00,CLR,SCT,0.00,WeatherDisplay:10.37,2013-03-09 03:46:00,
2013-03-08 19:51:00,37.6,15.4,30.02,NNW,339,2.7,2.7,40,0.00,CLR,SCT,0.00,WeatherDisplay:10.37,2013-03-09 03:51:00,
2013-03-08 19:56:00,37.0,15.5,30.02,NNW,339,0.0,0.0,41,0.00,CLR,SCT,0.00,WeatherDisplay:10.37,2013-03-09 03:56:00,
2013-03-08 20:01:00,36.7,15.2,30.02,NNW,339,0.0,0.0,41,0.00,CLR,SCT,0.00,WeatherDisplay:10.37,2013-03-09 04:01:00,
2013-03-08 20:07:00,36.1,14.7,30.05,NNW,339,0.0,0.0,41,0.00,CLR,SCT,0.00,WeatherDisplay:10.37,2013-03-09 04:07:00,
2013-03-08 20:12:00,36.0,14.5,30.05,NNW,339,0.0,0.0,41,0.00,CLR,SCT,0.00,WeatherDisplay:10.37,2013-03-09 04:12:00,
2013-03-08 20:17:00,36.0,15.1,30.05,NNW,339,0.0,0.0,42,0.00,CLR,SCT,0.00,WeatherDisplay:10.37,2013-03-09 04:17:00,
2013-03-08 20:22:00,35.6,14.2,30.05,NNW,339,0.0,0.0,41,0.00,CLR,SCT,0.00,WeatherDisplay:10.37,2013-03-09 04:22:00,
2013-03-08 20:27:00,35.1,14.2,30.05,NNW,339,0.0,0.0,42,0.00,CLR,SCT,0.00,WeatherDisplay:10.37,2013-03-09 04:27:00,
2013-03-08 20:33:00,34.3,14.1,30.05,NNW,339,0.0,0.0,43,0.00,CLR,SCT,0.00,WeatherDisplay:10.37,2013-03-09 04:33:00,
2013-03-08 20:38:00,33.6,14.0,30.05,NNW,339,0.0,0.0,44,0.00,CLR,SCT,0.00,WeatherDisplay:10.37,2013-03-09 04:38:00,
2013-03-08 20:43:00,32.9,13.9,30.05,NNW,339,0.0,0.0,45,0.00,CLR,SCT,0.00,WeatherDisplay:10.37,2013-03-09 04:43:00,
2013-03-08 20:48:00,32.4,13.9,30.05,NNW,339,3.5,3.5,46,0.00,CLR,SCT,0.00,WeatherDisplay:10.37,2013-03-09 04:48:00,
2013-03-08 20:54:00,32.2,13.7,30.05,NNW,339,3.5,3.5,46,0.00,CLR,SCT,0.00,WeatherDisplay:10.37,2013-03-09 04:54:00,
2013-03-08 20:59:00,31.6,13.7,30.05,NNW,339,4.6,4.6,47,0.00,CLR,SCT,0.00,WeatherDisplay:10.37,2013-03-09 04:59:00,
2013-03-08 21:00:00,31.5,13.5,30.05,NNW,339,3.5,3.5,47,0.00,CLR,SCT,0.00,WeatherDisplay:10.37,2013-03-09 05:00:00,
2013-03-08 21:02:00,31.3,13.4,30.05,NNW,339,3.5,3.6,47,0.00,CLR,SCT,0.00,WeatherDisplay:10.37,2013-03-09 05:02:00,
2013-03-08 21:07:00,31.1,14.1,30.05,NNW,339,3.6,3.6,49,0.00,CLR,SCT,0.00,WeatherDisplay:10.37,2013-03-09 05:07:00,
2013-03-08 21:12:00,31.1,14.6,30.05,NNW,339,4.0,4.0,50,0.00,CLR,SCT,0.00,WeatherDisplay:10.37,2013-03-09 05:12:00,
2013-03-08 21:17:00,30.7,14.3,30.05,NNW,339,4.6,4.6,50,0.00,CLR,SCT,0.00,WeatherDisplay:10.37,2013-03-09 05:17:00,
2013-03-08 21:22:00,30.6,14.6,30.05,South,179,3.5,3.5,51,0.00,CLR,SCT,0.00,WeatherDisplay:10.37,2013-03-09 05:22:00,
2013-03-08 21:28:00,30.4,15.3,30.05,South,191,4.6,4.6,53,0.00,CLR,SCT,0.00,WeatherDisplay:10.37,2013-03-09 05:28:00,
2013-03-08 21:33:00,30.2,15.1,30.05,South,190,4.6,4.6,53,0.00,CLR,SCT,0.00,WeatherDisplay:10.37,2013-03-09 05:33:00,
2013-03-08 21:38:00,29.7,15.0,30.05,South,190,4.6,4.6,54,0.00,CLR,SCT,0.00,WeatherDisplay:10.37,2013-03-09 05:38:00,
2013-03-08 21:43:00,29.3,15.5,30.05,SSW,199,4.6,4.6,56,0.00,CLR,SCT,0.00,WeatherDisplay:10.37,2013-03-09 05:43:00,
2013-03-08 21:48:00,29.3,15.5,30.08,SSW,212,5.8,5.8,56,0.00,CLR,SCT,0.00,WeatherDisplay:10.37,2013-03-09 05:48:00,
2013-03-08 21:54:00,29.7,16.3,30.08,SW,217,6.3,6.3,57,0.00,CLR,SCT,0.00,WeatherDisplay:10.37,2013-03-09 05:54:00,
2013-03-08 21:59:00,30.0,16.6,30.08,SSW,203,5.8,5.8,57,0.00,CLR,SCT,0.00,WeatherDisplay:10.37,2013-03-09 05:59:00,
2013-03-08 22:04:00,30.6,16.3,30.08,SSW,199,5.8,5.8,55,0.00,CLR,SCT,0.00,WeatherDisplay:10.37,2013-03-09 06:04:00,
2013-03-08 22:09:00,30.6,16.3,30.08,SSW,199,4.9,4.9,55,0.00,CLR,SCT,0.00,WeatherDisplay:10.37,2013-03-09 06:09:00,
2013-03-08 22:14:00,30.6,16.3,30.08,SSW,198,5.0,6.0,55,0.00,CLR,SCT,0.00,WeatherDisplay:10.37,2013-03-09 06:14:00,
2013-03-08 22:20:00,30.6,16.3,30.08,South,189,5.8,5.8,55,0.00,CLR,SCT,0.00,WeatherDisplay:10.37,2013-03-09 06:20:00,
2013-03-08 22:25:00,30.6,16.3,30.08,South,183,4.0,4.0,55,0.00,CLR,SCT,0.00,WeatherDisplay:10.37,2013-03-09 06:25:00,
2013-03-08 22:30:00,30.2,16.4,30.08,SSW,198,3.5,3.5,56,0.00,CLR,SCT,0.00,WeatherDisplay:10.37,2013-03-09 06:30:00,
2013-03-08 22:35:00,30.0,15.8,30.08,SSW,198,3.5,3.5,55,0.00,CLR,SCT,0.00,WeatherDisplay:10.37,2013-03-09 06:35:00,
2013-03-08 22:40:00,29.7,15.5,30.08,SSW,198,2.3,0.0,55,0.00,CLR,SCT,0.00,WeatherDisplay:10.37,2013-03-09 06:40:00,
2013-03-08 22:46:00,29.5,15.3,30.08,SSW,198,2.3,2.7,55,0.00,CLR,SCT,0.00,WeatherDisplay:10.37,2013-03-09 06:46:00,
2013-03-08 22:51:00,28.9,14.8,30.08,SSW,198,0.0,0.0,55,0.00,CLR,SCT,0.00,WeatherDisplay:10.37,2013-03-09 06:51:00,
2013-03-08 22:57:00,28.6,14.4,30.08,SSW,198,2.2,0.0,55,0.00,CLR,SCT,0.00,WeatherDisplay:10.37,2013-03-09 06:57:00,
2013-03-08 23:02:00,28.4,15.1,30.08,SSW,198,3.5,3.5,57,0.00,CLR,SCT,0.00,WeatherDisplay:10.37,2013-03-09 07:02:00,
2013-03-08 23:07:00,27.9,14.6,30.08,SSW,197,3.5,3.5,57,0.00,CLR,SCT,0.00,WeatherDisplay:10.37,2013-03-09 07:07:00,
2013-03-08 23:13:00,27.9,15.8,30.08,SW,221,3.6,3.6,60,0.00,CLR,SCT,0.00,WeatherDisplay:10.37,2013-03-09 07:13:00,
2013-03-08 23:18:00,27.9,16.1,30.08,SW,221,3.5,3.5,61,0.00,CLR,SCT,0.00,WeatherDisplay:10.37,2013-03-09 07:18:00,
2013-03-08 23:23:00,27.5,15.4,30.08,SW,221,0.0,0.0,60,0.00,CLR,SCT,0.00,WeatherDisplay:10.37,2013-03-09 07:23:00,
2013-03-08 23:28:00,27.3,16.0,30.08,SW,221,0.0,0.0,62,0.00,CLR,SCT,0.00,WeatherDisplay:10.37,2013-03-09 07:28:00,
2013-03-08 23:33:00,27.0,14.9,30.11,SW,221,0.0,0.0,60,0.00,CLR,SCT,0.00,WeatherDisplay:10.37,2013-03-09 07:33:00,
2013-03-08 23:39:00,26.8,14.7,30.11,SW,221,0.0,0.0,60,0.00,CLR,SCT,0.00,WeatherDisplay:10.37,2013-03-09 07:39:00,
2013-03-08 23:44:00,26.6,14.6,30.11,SW,221,0.0,0.0,60,0.00,CLR,SCT,0.00,WeatherDisplay:10.37,2013-03-09 07:44:00,
2013-03-08 23:49:00,26.2,13.8,30.11,SW,221,0.0,0.0,59,0.00,CLR,SCT,0.00,WeatherDisplay:10.37,2013-03-09 07:49:00,
2013-03-08 23:54:00,25.9,13.5,30.11,SW,221,0.0,0.0,59,0.00,CLR,SCT,0.00,WeatherDisplay:10.37,2013-03-09 07:54:00,
2013-03-08 23:59:00,25.3,13.0,30.11,SW,221,0.0,0.0,59,0.00,CLR,SCT,0.00,WeatherDisplay:10.37,2013-03-09 07:59:00,